Regional Weather Roundup
Issued by NWS

Home | Current Version | Previous Version | Text Only | Print | Product List | Glossary Off
Versions: 1 2 3 4 5 6 7 8 9 10 11 12 13 14 15 16 17 18 19 20 21 22 23 24 25 26 27 28 29 30 31 32 33 34 35 36 37 38 39 40 41 42 43 44 45 46 47 48 49 50

000
ASUS43 KMKX 312021
RWRWI

WISCONSIN REGIONAL WEATHER ROUNDUP
NATIONAL WEATHER SERVICE MILWAUKEE/SULLIVAN WI
300 PM CDT MON AUG 31 2015

NOTE: "FAIR" INDICATES FEW OR NO CLOUDS BELOW 12,000 FEET WITH NO
SIGNIFICANT WEATHER AND/OR OBSTRUCTIONS TO VISIBILITY.

WIZ001-002-006>008-014>016-023>028-312100-
NORTHWEST WISCONSIN

CITY           SKY/WX    TMP DP  RH WIND       PRES   REMARKS
SUPERIOR ARPT  SUNNY     83  69  62 SW13G18   29.83S HX  86
ASHLAND        SUNNY     82  69  64 S13G21    29.88F HX  85
HAYWARD        SUNNY     77  66  68 S18       29.94S
SIREN          MOSUNNY   81  67  63 SW12G21   29.91S HX  83
CUMBERLAND     MOSUNNY   77  68  73 S14G20    29.94F
RICE LAKE      CLOUDY    78  69  73 S13       29.96F HX  80
CHETEK         PTSUNNY  N/A N/A N/A S5        29.96F
LADYSMITH      PTSUNNY   76  67  72 S13       30.00S
EAU CLAIRE     PTSUNNY   79  69  71 S8        29.96F HX  81
MENOMONIE      MOSUNNY   82  70  68 S13       29.95F HX  86
NEW RICHMOND   MOSUNNY   82  68  63 S15G24    29.92F HX  84
OSCEOLA        MOSUNNY   82  69  64 S14       29.93F HX  85
$$

WIZ003>005-009-010-017-018-312100-
NORTH CENTRAL WISCONSIN

CITY           SKY/WX    TMP DP  RH WIND       PRES   REMARKS
MANITOWISH WTR SUNNY     79  65  62 SW9       29.97S HX  81
ARBOR VITAE    SUNNY     80  66  62 S10       29.98S HX  82
WOODRUFF       SUNNY     80  66  62 S10       29.98S HX  82
RHINELANDER    SUNNY     78  65  63 S10       30.00F HX  80
EAGLE RIVER    SUNNY     79  61  52 SW8       29.97F HX  80
LAND O LAKES   SUNNY     82  58  44 SW9       29.97F HX  82
PHILLIPS       MOSUNNY   75  66  73 SW12      29.98S
TOMAHAWK       SUNNY     78  66  66 S3        30.00F HX  80
MEDFORD        CLOUDY    71  67  88 S12       30.02S
MERRILL        MOSUNNY   76  68  74 S8        30.00F
$$

WIZ029-030-035-036-043>047-312100-
CENTRAL WISCONSIN

CITY           SKY/WX    TMP DP  RH WIND       PRES   REMARKS
WAUSAU         MOSUNNY   77  66  68 S8        30.00F
MOSINEE        PTSUNNY   75  68  78 SW12      30.02F
MARSHFIELD     CLOUDY    76  66  71 S7        30.01F
STEVENS POINT  PTSUNNY   76  66  72 S7        30.01F
WAUPACA        SUNNY     82  67  61 S7        30.01F HX  84
WAUTOMA        MOSUNNY   82  69  64 S7        30.02S HX  85
WISC RAPIDS    MOSUNNY   79  66  64 SW12      30.03S HX  81
CAMP DOUGLAS   MOSUNNY   81  75  83 SW9       30.01S HX  86
$$

WIZ011>013-019>022-031-037>040-048>050-312100-
NORTHEAST WISCONSIN

CITY           SKY/WX    TMP DP  RH WIND       PRES   REMARKS
ANTIGO         PTSUNNY   74  66  75 SW9       30.03S
SHAWANO        CLOUDY    77  67  72 SW6       30.00F
OCONTO         SUNNY     78  69  72 SW9       29.98F HX  80
STURGEON BAY   SUNNY     79  66  65 SW9       30.01F HX  81
GREEN BAY      MOSUNNY   78  69  73 SW7       30.00F HX  80
MANITOWOC      SUNNY     78  67  68 MISG      30.02F HX  80
APPLETON       PTSUNNY   75  64  69 S9        30.01F
CLINTONVILLE   PTSUNNY   79  66  65 SW8       30.00F HX  81
OSHKOSH        MOSUNNY   78  67  68 S9        30.02F HX  80
$$

WIZ032>034-041-042-053>061-312100-
SOUTHWEST WISCONSIN

CITY           SKY/WX    TMP DP  RH WIND       PRES   REMARKS
LA CROSSE      SUNNY     84  71  65 S12       29.96F HX  89
SPARTA         MOSUNNY   83  66  57 S10       30.00F HX  85
VIROQUA          N/A     82  69  65 S9        30.02F HX  85
BOSCOBEL       MOSUNNY   86  70  58 VRB6      30.00F HX  90
PRAIRIE DU CHI MOSUNNY   84  67  57 SE10      29.98F HX  86
PLATTEVILLE    MOSUNNY   81  70  69 S9        30.03S HX  85
$$

WIZ056-057-062-063-064-067-068-312100-
SOUTH CENTRAL WISCONSIN

CITY           SKY/WX    TMP DP  RH WIND       PRES   REMARKS
REEDSBURG      MOSUNNY   81  69  66 S10       30.01F HX  84
BARABOO/DELLS  PTSUNNY   83  65  54 S9        30.02F HX  85
LONE ROCK      MOSUNNY   83  68  60 S8        30.01F HX  86
MINERAL POINT  MOSUNNY   82  68  61 S7        30.04S HX  85
MADISON        PTSUNNY   82  67  60 S9        30.02F HX  84
MIDDLETON      MOSUNNY   84  66  54 SW9       30.03F HX  87
WATERTOWN      SUNNY     81  70  68 SW7       30.03F HX  84
MONROE         MOSUNNY   81  68  65 S7        30.04F HX  83
JANESVILLE     MOSUNNY   84  66  54 SW6       30.03F HX  86
$$

WIZ051-052-058>065-066-070>072-312100-
SOUTHEAST WISCONSIN

CITY           SKY/WX    TMP DP  RH WIND       PRES   REMARKS
MILWAUKEE      MOSUNNY   80  66  62 SW7       30.04F HX  82
WAUKESHA       MOSUNNY   79  66  65 SW6       30.05F HX  81
MILWAUKEE/TIMM NOT AVBL
RACINE         SUNNY     76  65  68 SE9       30.06F
BURLINGTON     MOSUNNY   81  66  60 W5        30.04F HX  83
KENOSHA        SUNNY     79  69  71 E6        30.05F HX  81
FOND DU LAC    SUNNY     80  68  66 SW8       30.02F HAZE    HX  83
SHEBOYGAN      SUNNY     77  67  71 SW7       30.03F
WEST BEND      MOSUNNY   79  63  57 CALM      30.04F HX  80
JUNEAU         MOSUNNY   78  67  69 S10       30.05F HX  80
$$

LSZ147-162-312100-
LAKE SUPERIOR

STATION/POSITION TIME  TEMP    WIND        PRES    WAVE
                       AIR SEA DIR/SP/G            HT/PER
                 (UTC) (F)     (DEG/KT/KT) (MB)    (FT/S)
W MID LAKE BUOY  1950   63 57  160/  4/  6 1011.0F   1
DEVILS ISLAND    2000   68      10/  4/  5 1010.8F
PORT WING        1900   81     190/ 13/ 16 1011.2S
SAXON HARBOR     1940   82     190/  9/ 17 1011.2F
$$

LMZ867-665-643>646-312100-
LAKE MICHIGAN

STATION/POSITION TIME  TEMP    WIND        PRES    WAVE
                       AIR SEA DIR/SP/G            HT/PER
                 (UTC) (F)     (DEG/KT/KT) (MB)    (FT/S)
CHAMBERS ISLAND  1900   70     170/  8/ 16 1015.6F
N MID LAKE BUOY  1950   64 65  210/ 16/ 17 1015.3F   2/ 4
NORTHPORT PIER   1900   66     140/ 11/ 13 1015.2F
KEWAUNEE LAKESHO 1900   56     170/ 12/ 13 1015.6F
SHEBOYGAN LAKESH 2000   67     180/ 17/ 18 1016.8F
PORT WASHINGTON  1940   65     180/  9/ 11 1017.9F
ATWATER BUOY     2000   59 51  170/  6/  8 1018.3F
MILWAUKEE LAKESH 2010   62     130/  6/  8   N/A
S MID LAKE BUOY  1950   70 72  170/  8/  8 1017.3F   0
KENOSHA   LAKESH 2000   68     180/  8/ 11 1016.9F
$$

TC  - TEMPERATURE IN CELSIUS
VSB - VISIBILITY IN STATUTE MILES
WCI - WIND CHILL INDEX
HX  - HEAT INDEX



USA.gov is the U.S. government's official web portal to all federal, state and local government web resources and services.